Flag for Germany Weather past 2 weeks in Neustrelitz, Mecklenburg-Western Pomerania, Germany

Now
35 °F

Overcast.


Feels Like: 32 °F
Forecast: 32 / 47 °F
Wind: 3 mph from West

Location: Neuruppin

Current Time: Apr 2, 2015 at 2:50:45 AM

Latest Report: Apr 2, 2015 at 2:00 AM


Visibility: 6 mi

Pressure: 29.78 "Hg

Humidity: 90%

Dew point: 32 °F

Location of NeustrelitzLocation

Historic Weather in Neustrelitz — Graph

°F

Neustrelitz temperature yesterday

Maximum temperature yesterday: 47 °F (at 4:00 PM)
Minimum temperature yesterday: 36 °F (at 11:00 PM)
Average temperature yesterday: 39 °F

Past Weeks' High & Low Weather Summary

 TemperatureHumidityPressure
High57 °F (Mar 25, 3:00 PM)98% (Mar 31, 9:00 AM)30.43 "Hg (Mar 31, 9:00 AM)
Low28 °F (Mar 20, 6:00 AM)22% (Mar 18, 3:00 PM)29.00 "Hg (Mar 30, 12:00 AM)
Average42 °F74%29.89 "Hg
* Reported Midnight between Mar 17 and Mar 18 — Apr 2 1:00 AM, Neustrelitz, Weather by CustomWeather, © 2015

Note: Actual official high and low records may vary slightly from our data, if they occured in-between our weather recording intervals... More about our weather records

Advertising

Neustrelitz weather history for previous 24 hours

 ConditionsComfort  
Time TempWeatherWind HumidityBarometerVisibility
1:00 AM
Thu, Apr 2
35 °FPassing clouds.6 mph87%29.80 "Hg6 mi
12:00 AM36 °FOvercast.5 mph85%29.81 "Hg6 mi
11:00 PM
Wed, Apr 1
36 °FPassing clouds.5 mph82%29.82 "Hg6 mi
10:00 PM38 °FPassing clouds.5 mph68%29.82 "Hg6 mi
9:00 PM37 °FPassing clouds.2 mph74%29.81 "Hg6 mi
8:00 PM38 °FPassing clouds.5 mph69%29.79 "Hg6 mi
7:00 PM42 °FPartly sunny.7 mph57%29.78 "Hg6 mi
6:00 PM41 °FScattered clouds.10 mph60%29.76 "Hg6 mi
4:00 PM47 °FPartly sunny.12 mph42%29.71 "Hg6 mi
3:00 PM44 °FPartly sunny.7 mph70%29.72 "Hg7 mi
2:00 PM40 °FOvercast.9 mph79%29.71 "Hg6 mi
1:00 PM39 °FOvercast.9 mph86%29.70 "Hg6 mi
12:00 PM43 °FOvercast.9 mph71%29.67 "Hg6 mi
11:00 AM41 °FOvercast.8 mph77%29.67 "Hg6 mi
10:00 AM39 °FOvercast.7 mph88%29.65 "Hg6 mi
9:00 AM38 °FOvercast.8 mph87%29.63 "Hg6 mi
8:00 AM37 °FOvercast.7 mph89%29.60 "Hg6 mi
7:00 AM37 °FOvercast.6 mph86%29.57 "Hg6 mi
6:00 AM38 °FOvercast.7 mph85%29.56 "Hg6 mi
4:00 AM38 °FOvercast.7 mph85%29.50 "Hg6 mi
3:00 AM38 °FOvercast.8 mph83%29.47 "Hg6 mi
2:00 AM38 °FOvercast.7 mph85%29.44 "Hg6 mi
Weather by CustomWeather, © 2015

See weather overviewHow to use our weather pages